When you browse on this site, cookies collect data to enhance your experience and personalize the content and advertising you see.
Visit our Privacy Policy to learn more. By continuing to use the site, you agree to this use of cookies and data.

Hourly Weather Selfoss

Today, 15 July, Wednesday

Time Temperature Precipitation Wind Pressure Humidity
00:00 +12°C° 0.1 mm 1 mps 755 mmHg 93%
01:00 +12°C° 0.1 mm 1 mps 755 mmHg 93%
02:00 +12°C° 0.1 mm 1 mps 754 mmHg 93%
03:00 +12°C° 0 mm 1 mps 754 mmHg 93%
04:00 +11°C° 0 mm 0 mps 754 mmHg 93%
05:00 +11°C° 0 mm 0 mps 753 mmHg 92%
06:00 +12°C° 0.1 mm 1 mps 753 mmHg 92%
07:00 +12°C° 0.1 mm 1 mps 753 mmHg 91%
08:00 +13°C° 0.1 mm 2 mps 753 mmHg 90%
09:00 +13°C° 0.6 mm 2 mps 752 mmHg 91%
10:00 +13°C° 0.6 mm 2 mps 752 mmHg 92%
11:00 +11°C° 0.6 mm 3 mps 751 mmHg 93%
12:00 +12°C° 0.5 mm 3 mps 750 mmHg 93%
13:00 +12°C° 0.5 mm 3 mps 750 mmHg 93%
14:00 +12°C° 0.5 mm 4 mps 749 mmHg 93%
15:00 +11°C° 0.5 mm 4 mps 748 mmHg 94%
16:00 +10°C° 0.5 mm 5 mps 748 mmHg 94%
17:00 +10°C° 0.5 mm 6 mps 747 mmHg 95%
18:00 +10°C° 2.5 mm 6 mps 746 mmHg 95%
19:00 +10°C° 2.5 mm 6 mps 745 mmHg 96%
20:00 +10°C° 2.5 mm 6 mps 744 mmHg 97%
21:00 +10°C° 1.8 mm 6 mps 743 mmHg 97%
22:00 +10°C° 1.8 mm 5 mps 742 mmHg 97%
23:00 +10°C° 1.8 mm 5 mps 740 mmHg 97%

Tomorrow, 16 July, Thursday

Time Temperature Precipitation Wind Pressure Humidity
00:00 +10°C° 1.6 mm 5 mps 739 mmHg 97%
01:00 +10°C° 1.6 mm 5 mps 738 mmHg 98%
02:00 +11°C° 1.6 mm 4 mps 737 mmHg 98%
03:00 +11°C° 0.8 mm 4 mps 737 mmHg 98%
04:00 +11°C° 0.8 mm 4 mps 736 mmHg 97%
05:00 +11°C° 0.8 mm 4 mps 736 mmHg 97%
06:00 +11°C° 0.7 mm 3 mps 735 mmHg 95%
07:00 +12°C° 0.7 mm 2 mps 735 mmHg 93%
08:00 +13°C° 0.7 mm 2 mps 735 mmHg 91%
09:00 +13°C° 0.4 mm 2 mps 735 mmHg 90%
10:00 +13°C° 0.4 mm 2 mps 735 mmHg 90%
11:00 +12°C° 0.4 mm 3 mps 736 mmHg 89%
12:00 +13°C° 0.4 mm 3 mps 736 mmHg 89%
13:00 +13°C° 0.4 mm 4 mps 736 mmHg 88%
14:00 +13°C° 0.4 mm 5 mps 736 mmHg 87%
15:00 +13°C° 0.5 mm 4 mps 736 mmHg 88%
16:00 +12°C° 0.5 mm 4 mps 736 mmHg 90%
17:00 +12°C° 0.5 mm 4 mps 736 mmHg 91%
18:00 +11°C° 0.9 mm 3 mps 737 mmHg 92%
19:00 +11°C° 0.9 mm 3 mps 737 mmHg 94%
20:00 +11°C° 0.9 mm 3 mps 737 mmHg 95%
21:00 +10°C° 0.6 mm 3 mps 737 mmHg 94%
22:00 +10°C° 0.6 mm 3 mps 737 mmHg 94%
23:00 +10°C° 0.6 mm 3 mps 737 mmHg 93%

Day after tomorrow, 17 July, Friday

Time Temperature Precipitation Wind Pressure Humidity
00:00 +10°C° 0.2 mm 4 mps 737 mmHg 92%
01:00 +8°C° 0.2 mm 4 mps 738 mmHg 91%
02:00 +8°C° 0.2 mm 5 mps 738 mmHg 89%
03:00 +8°C° 0.1 mm 6 mps 738 mmHg 88%
04:00 +7°C° 0.1 mm 8 mps 739 mmHg 87%
05:00 +7°C° 0.1 mm 9 mps 740 mmHg 86%
06:00 +7°C° 0 mm 9 mps 740 mmHg 84%
07:00 +8°C° 0 mm 9 mps 741 mmHg 81%
08:00 +8°C° 0 mm 10 mps 741 mmHg 78%
09:00 +8°C° 0 mm 10 mps 742 mmHg 75%
10:00 +9°C° 0 mm 10 mps 743 mmHg 73%
11:00 +9°C° 0 mm 11 mps 744 mmHg 70%
12:00 +9°C° 0 mm 11 mps 744 mmHg 70%
13:00 +9°C° 0 mm 11 mps 744 mmHg 69%
14:00 +9°C° 0 mm 11 mps 745 mmHg 69%
15:00 +8°C° 0 mm 11 mps 745 mmHg 71%
16:00 +8°C° 0 mm 11 mps 745 mmHg 72%
17:00 +7°C° 0 mm 11 mps 746 mmHg 74%
18:00 +7°C° 0 mm 11 mps 746 mmHg 76%
19:00 +6°C° 0 mm 11 mps 747 mmHg 77%
20:00 +6°C° 0 mm 10 mps 747 mmHg 78%
21:00 +6°C° 0 mm 10 mps 748 mmHg 79%
22:00 +6°C° 0 mm 10 mps 748 mmHg 79%
23:00 +6°C° 0 mm 10 mps 749 mmHg 79%

18 July, Saturday

Time Temperature Precipitation Wind Pressure Humidity
00:00 +6°C° 0 mm 9 mps 749 mmHg 80%
01:00 +5°C° 0 mm 9 mps 749 mmHg 80%
02:00 +5°C° 0 mm 9 mps 750 mmHg 81%
03:00 +5°C° 0 mm 8 mps 750 mmHg 80%
04:00 +5°C° 0 mm 8 mps 751 mmHg 80%
05:00 +6°C° 0 mm 8 mps 751 mmHg 80%
06:00 +6°C° 0 mm 8 mps 751 mmHg 77%
07:00 +7°C° 0 mm 9 mps 752 mmHg 74%
08:00 +8°C° 0 mm 9 mps 752 mmHg 71%
09:00 +8°C° 0 mm 9 mps 753 mmHg 69%
10:00 +10°C° 0 mm 9 mps 753 mmHg 67%
11:00 +10°C° 0 mm 9 mps 754 mmHg 65%
12:00 +10°C° 0 mm 9 mps 754 mmHg 64%
13:00 +10°C° 0 mm 9 mps 754 mmHg 64%
14:00 +10°C° 0 mm 9 mps 754 mmHg 63%
15:00 +10°C° 0 mm 9 mps 755 mmHg 64%
16:00 +8°C° 0 mm 9 mps 755 mmHg 64%
17:00 +8°C° 0 mm 9 mps 756 mmHg 65%
18:00 +7°C° 0 mm 8 mps 756 mmHg 68%
19:00 +8°C° 0 mm 7 mps 757 mmHg 71%
20:00 +6°C° 0 mm 7 mps 758 mmHg 74%
21:00 +7°C° 0 mm 6 mps 758 mmHg 77%
22:00 +5°C° 0 mm 6 mps 759 mmHg 80%
23:00 +5°C° 0 mm 5 mps 759 mmHg 83%

19 July, Sunday

Time Temperature Precipitation Wind Pressure Humidity
00:00 +5°C° 0 mm 5 mps 759 mmHg 83%
01:00 +5°C° 0 mm 5 mps 760 mmHg 83%
02:00 +5°C° 0 mm 5 mps 760 mmHg 82%
03:00 +5°C° 0 mm 5 mps 761 mmHg 82%
04:00 +5°C° 0 mm 4 mps 761 mmHg 82%
05:00 +5°C° 0 mm 4 mps 761 mmHg 82%
06:00 +7°C° 0 mm 5 mps 761 mmHg 77%
07:00 +8°C° 0 mm 5 mps 761 mmHg 72%
08:00 +10°C° 0 mm 6 mps 762 mmHg 66%
09:00 +10°C° 0 mm 6 mps 762 mmHg 66%
10:00 +11°C° 0 mm 6 mps 762 mmHg 65%
11:00 +12°C° 0 mm 7 mps 762 mmHg 64%
12:00 +12°C° 0 mm 7 mps 762 mmHg 63%
13:00 +12°C° 0 mm 7 mps 762 mmHg 62%
14:00 +14°C° 0 mm 7 mps 762 mmHg 61%
15:00 +12°C° 0 mm 7 mps 762 mmHg 62%
16:00 +12°C° 0 mm 7 mps 762 mmHg 62%
17:00 +12°C° 0 mm 7 mps 762 mmHg 63%
18:00 +11°C° 0 mm 6 mps 762 mmHg 67%
19:00 +10°C° 0 mm 5 mps 762 mmHg 72%
20:00 +11°C° 0 mm 4 mps 762 mmHg 76%
21:00 +10°C° 0 mm 4 mps 762 mmHg 80%
22:00 +9°C° 0 mm 3 mps 762 mmHg 84%
23:00 +7°C° 0 mm 2 mps 762 mmHg 89%

20 July, Monday

Time Temperature Precipitation Wind Pressure Humidity
00:00 +8°C° 0.1 mm 2 mps 761 mmHg 88%
01:00 +8°C° 0.1 mm 2 mps 761 mmHg 87%
02:00 +9°C° 0.1 mm 1 mps 761 mmHg 86%
03:00 +9°C° 0 mm 1 mps 761 mmHg 86%
04:00 +9°C° 0 mm 1 mps 761 mmHg 86%
05:00 +9°C° 0 mm 1 mps 761 mmHg 86%
06:00 +10°C° 0 mm 1 mps 761 mmHg 81%
07:00 +11°C° 0 mm 1 mps 761 mmHg 75%
08:00 +12°C° 0 mm 1 mps 761 mmHg 69%
09:00 +13°C° 0 mm 1 mps 762 mmHg 65%
10:00 +14°C° 0 mm 1 mps 762 mmHg 61%
11:00 +15°C° 0 mm 2 mps 762 mmHg 57%
12:00 +15°C° 0 mm 2 mps 762 mmHg 59%
13:00 +14°C° 0 mm 3 mps 762 mmHg 60%
14:00 +14°C° 0 mm 4 mps 762 mmHg 62%
15:00 +14°C° 0 mm 4 mps 762 mmHg 63%
16:00 +14°C° 0 mm 4 mps 762 mmHg 63%
17:00 +14°C° 0 mm 4 mps 762 mmHg 63%
18:00 +13°C° 0 mm 4 mps 763 mmHg 67%
19:00 +12°C° 0 mm 3 mps 763 mmHg 70%
20:00 +12°C° 0 mm 3 mps 763 mmHg 74%
21:00 +10°C° 0 mm 3 mps 763 mmHg 78%
22:00 +9°C° 0 mm 2 mps 763 mmHg 83%
23:00 +8°C° 0 mm 2 mps 764 mmHg 87%
Show more